STARLINK-31980, 59962

Orbit data source: Space-Track

STARLINK-31980, 59962 is a payload satellite owned by SpaceX/Seattle (US) in LEO that was launched on Wed, 05 Jun 2024 UTC via an FALCON 9 launch vehicle from the Air Force Eastern Test Range (AFETR). Payload-class satellites include a variety of spacecraft equipped with specific instruments for various scientific and technological missions. These include communications satellites like Starlink; space stations such as the ISS; scientific satellites like the Hubble; Earth observation satellites from companies like Planet Labs, Umbra, and HawkEye 360; GPS; miniature CubeSats for education and research; and military/defense satellites.

Loading next visibility...
Identifier
59962, 2024-107T
Orbit
LEO
Country
Flag of USUS
Related business
Manufacturer
SpaceX/Seattle
Mission
Operational Commercial Communications
Bus & Motor
STARLINK V2M, Unknown motor
Mass
730 kg wet, ~700 kg dry
Launch date (UTC)
2024-06-05 (1 year ago)
Launch vehicle
FALCON 9
Launch site
Air Force Eastern Test Range (AFETR)
Object type
Payload
Rocket body
Debris
Shape & HBR
Box + 2 Pan, 17.7 m
Radar Cross Section
33.884 m², Large (>1 m²)

Expand to show TLE details & history
Last TLE update: 19 hours ago

TLE from 19 hours ago
0 STARLINK-31980
1 59962U 24107T   25301.35252618  .00001613  00000-0  66596-4 0  9995
2 59962  53.1604 320.3214 0001204  80.9400 279.1737 15.30193296 79534
Epoch: 2025-10-28T08:27Z
TLE epoch observation values (Epoch: 2025-10-28T08:27:38.261Z)
Latitude
-0.00004°
Longitude
156.4707°
Altitude
476.003 km
Speed
7.629 km/s
True Right ascension
21h 21m 17s
True Declination
0° 00' 00"
Sunlit
Object was in daylight at epoch
Visualization orbit readout
Latitude
Unknown
Longitude
Unknown
Altitude
Unknown
Speed
Unknown
Apparent Right ascension
Unknown
Apparent Declination
Unknown
Sunlit
N/A
Visualization observer readout
Local Sidereal Time
22:29:49
Azimuth
Unknown
Elevation
Unknown
Doppler factor
Unknown
Orbital elements
Apogee altitude
476.317 km
Perigee altitude
474.666 km
Semi-major axis
6,853.628 km
Eccentricity
0.00012
Inclination
53.1604°
RAAN
320.3214°
Arg. of periapsis
80.94°
True anomaly
279.16008°
Mean anomaly
279.1737°
Eccentric anomaly
279.16689°
Mean motion
3.82527 °/min
Orbital period
94.11 mins
BSTAR
0.000066596
Loading maneuver chart data...
Computing Atmospheric mass density...
Loading historical data...
Loading historical data...
Loading historical data...
Loading historical data...
Loading historical data...
Loading historical data...
Loading historical data...

Documentation

Showing up to 5 results
|